sat.trackr.live / text

‹ back to catalog

STARLINK-37364

NORAD 68783 · 2026-086T

PAYLOAD ACTIVE UNKNOWN

§ Identity

Operator
Country
US
Launch date
2026-04-19
Launch site
AFWTR
Launch vehicle
Mass (kg)
RCS (m²)

Purposes: comms

External: N2YO · Heavens-Above · Gunter

§ Orbital elements

Epoch: 2026-05-25T04:00:03.998880Z

Period
92.24 min
Inclination
97.2847°
Eccentricity
0.0001313
Mean motion
15.61074701 rev/d
Perigee alt
383.7 km
Apogee alt
385.4 km
Semi-major
6,762.7 km
B*
-2.5606e-2
RAAN
182.0245°
Arg perigee
96.4201°
Mean anomaly
249.3170°
Rev number
607

§ Raw data

STARLINK-373641 68783U 26086T   26145.16671295 -.01903844  00000+0 -25606-1 0  99992 68783  97.2847 182.0245 0001313  96.4201 249.3170 15.61074701  6074

JSON: /api/v1/satellites/68783 · /tle

For live sub-satellite position, see the globe view (requires WebGL).

§ Visibility from observer

Set your observer location to see the next 7 days of passes ≥ 10°. The values pass through the URL so the page stays shareable.

No JS? Fill the form by hand. The geolocation button needs JavaScript.